Imrali, Turkey

9:28 AM +03 on September 26, 2017 (GMT +0300)
Imrali

Weather History for 17060 - February, 2013

Change the Weather History Date:

Sunday, February 3, 2013

  Actual Average Record
Temperature  
Mean Temperature 58 °F -  
Max Temperature 63 °F 47 °F - ()
Min Temperature 53 °F 37 °F - ()
Degree Days  
Heating Degree Days 7    
Growing Degree Days 8 (Base 50)    
Moisture  
Dew Point 43 °F    
Average Humidity 57    
Maximum Humidity 72    
Minimum Humidity 35    
Precipitation  
Precipitation 0.00 in - - ()
Sea Level Pressure  
Sea Level Pressure 29.84 in    
Wind  
Wind Speed 16 mph ()    
Max Wind Speed 28 mph    
Max Gust Speed 36 mph    
Visibility 8.0 miles    
Events      
T = Trace of Precipitation, MM = Missing Value Source: Averaged Metar Reports

Daily Weather History Graph

Daily Weather History Graph

Search for Another Location

Airport or City:

Trip Planner

Search our weather history database for the weather conditions in past years. The results will help you decide how hot, cold, wet, or windy it might be!

Date:

Astronomy

Feb. 03, 2013 Rise Set
Actual Time 7:13 AM EET 5:24 PM EET
Civil Twilight 6:44 AM EET 5:53 PM EET
Nautical Twilight 6:11 AM EET 6:26 PM EET
Astronomical Twilight 5:39 AM EET 6:58 PM EET
Moon 12:18 AM EET (2/3) 10:47 AM EET (2/3)
Length of Visible Light 11h 08m
Length of Day
10h 11m
Waning Gibbous, 52% of the Moon is Illuminated
Feb 3
Waning Gibbous
Feb 3
Last Quarter
Feb 10
New
Feb 17
First Quarter
Feb 25
Full

Hourly Weather History & Observations

Time (EET) Temp. Dew Point Humidity Pressure Visibility Wind Dir Wind Speed Gust Speed Precip Events Conditions
12:20 AM 55.4 °F 44.6 °F 67% 29.80 in - SW 18.4 mph - N/A   Clear
12:50 AM 55.4 °F 44.6 °F 67% 29.80 in - SW 19.6 mph - N/A   Clear
1:20 AM 55.4 °F 44.6 °F 67% 29.80 in - SW 21.9 mph - N/A   Clear
1:50 AM 55.4 °F 44.6 °F 67% 29.80 in - SW 16.1 mph - N/A   Clear
2:00 AM 55 °F 44 °F 57% 29.83 in 6 mi SW 16.1 mph - -  
2:20 AM 53.6 °F 44.6 °F 72% 29.83 in - SSW 10.4 mph - N/A   Clear
2:50 AM 55.4 °F 44.6 °F 67% 29.80 in - SSW 16.1 mph 29.9 mph N/A   Clear
3:20 AM 53.6 °F 42.8 °F 67% 29.80 in - SSW 18.4 mph - N/A   Clear
3:50 AM 55.4 °F 42.8 °F 63% 29.80 in - SSW 18.4 mph - N/A   Clear
4:20 AM 55.4 °F 42.8 °F 63% 29.80 in - SSW 20.7 mph - N/A   Clear
4:50 AM 55.4 °F 42.8 °F 63% 29.80 in - SSW 16.1 mph - N/A   Clear
5:20 AM 55.4 °F 42.8 °F 63% 29.80 in - South 11.5 mph - N/A   Clear
5:50 AM 53.6 °F 42.8 °F 67% 29.80 in - South 17.3 mph - N/A   Clear
6:20 AM 55.4 °F 42.8 °F 63% 29.80 in - South 13.8 mph - N/A   Clear
6:50 AM 55.4 °F 41.0 °F 58% 29.83 in - South 13.8 mph - N/A   Clear
7:20 AM 55.4 °F 41.0 °F 58% 29.83 in - South 16.1 mph - N/A   Clear
7:50 AM 55.4 °F 41.0 °F 58% 29.86 in - South 13.8 mph - N/A   Clear
8:20 AM 57.2 °F 42.8 °F 59% 29.86 in - South 13.8 mph - N/A   Clear
8:50 AM 57.2 °F 42.8 °F 59% 29.86 in - SW 15.0 mph - N/A   Clear
9:20 AM 57.2 °F 42.8 °F 59% 29.86 in - SW 15.0 mph - N/A   Clear
9:50 AM 57.2 °F 44.6 °F 63% 29.86 in - SSW 15.0 mph - N/A   Clear
10:20 AM 59.0 °F 42.8 °F 55% 29.86 in - SW 16.1 mph - N/A   Clear
10:50 AM 59.0 °F 44.6 °F 59% 29.86 in - South 13.8 mph - N/A   Clear
11:20 AM 60.8 °F 44.6 °F 55% 29.86 in - SSW 16.1 mph - N/A   Clear
11:50 AM 60.8 °F 44.6 °F 55% 29.86 in - SW 18.4 mph - N/A   Clear
12:20 PM 60.8 °F 44.6 °F 55% 29.86 in - SW 17.3 mph 28.8 mph N/A   Clear
12:50 PM 60.8 °F 46.4 °F 59% 29.86 in - West 10.4 mph - N/A   Clear
1:20 PM 62.6 °F 44.6 °F 52% 29.86 in - SW 15.0 mph - N/A   Clear
1:50 PM 60.8 °F 46.4 °F 59% 29.83 in - WSW 11.5 mph - N/A   Clear
2:00 PM 61 °F 45 °F 44% 29.85 in 6 mi WSW 11.5 mph - -   Clear
2:20 PM 60.8 °F 44.6 °F 55% 29.83 in - SSW 19.6 mph - N/A   Clear
2:50 PM 60.8 °F 44.6 °F 55% 29.83 in - WSW 12.7 mph 28.8 mph N/A   Clear
3:20 PM 60.8 °F 44.6 °F 55% 29.83 in - SSW 16.1 mph - N/A   Clear
3:50 PM 62.6 °F 42.8 °F 48% 29.80 in - SSW 25.3 mph - N/A   Clear
4:20 PM 62.6 °F 42.8 °F 48% 29.80 in - SSW 26.5 mph - N/A   Clear
4:50 PM 60.8 °F 42.8 °F 52% 29.80 in - SSW 27.6 mph - N/A   Clear
5:20 PM 60.8 °F 42.8 °F 52% 29.80 in - SW 26.5 mph - N/A   Clear
5:50 PM 60.8 °F 42.8 °F 52% 29.83 in - SW 26.5 mph - N/A   Clear
6:20 PM 60.8 °F 42.8 °F 52% 29.83 in - SSW 26.5 mph - N/A   Clear
6:50 PM 60.8 °F 42.8 °F 52% 29.83 in - SW 27.6 mph - N/A   Clear
7:20 PM 59.0 °F 42.8 °F 55% 29.86 in - SW 23.0 mph - N/A   Clear
7:50 PM 60.8 °F 41.0 °F 48% 29.86 in - SSW 21.9 mph 35.7 mph N/A   Clear
8:00 PM 61 °F 41 °F 35% 29.86 in 12 mi SSW 21.9 mph - -   Clear
8:20 PM 59.0 °F 41.0 °F 51% 29.86 in - SSW 18.4 mph - N/A   Clear
8:50 PM 55.4 °F 42.8 °F 63% 29.89 in - South 8.1 mph - N/A   Clear
9:20 PM 59.0 °F 41.0 °F 51% 29.89 in - SW 16.1 mph - N/A   Clear
9:50 PM 57.2 °F 42.8 °F 59% 29.89 in - SW 12.7 mph - N/A   Clear
10:20 PM 55.4 °F 42.8 °F 63% 29.92 in - SSW 6.9 mph - N/A   Clear
10:50 PM 57.2 °F 41.0 °F 55% 29.92 in - South 10.4 mph - N/A   Clear
11:20 PM 60.8 °F 41.0 °F 48% 29.92 in - South 18.4 mph - N/A   Clear
11:50 PM 59.0 °F 41.0 °F 51% 29.92 in - South 16.1 mph - N/A   Clear